Temp
39 39 39 39 38 38 37 36 36 36 37 36 36 35 35 33 32 32 32 32 32 31 31 31 31 31 31 31 31 31 30 29 28 28 28 28 27 27 28 26 26 26
38 39 38 38 37 37 37 37 37 37 36 35 35 34 33 32 31 32 32 31 31 31 30 30 30 31 30 30 30 30 29 29 28 29 28 28 27 27 27 26 26 25
38 37 37 37 37 37 36 36 36 36 35 34 33 33 32 32 31 31 31 32 31 30 30 30 30 30 29 29 30 30 30 29 28 27 28 27 27 28 26 26 26 26
37 38 37 37 37 37 36 36 34 34 33 32 33 32 32 32 31 31 31 31 31 30 30 29 29 29 29 29 29 30 29 29 28 27 28 27 26 27 26 26 26 26
37 36 36 36 36 36 36 35 34 33 33 33 31 31 31 31 31 31 31 31 31 30 29 29 28 29 29 29 29 29 29 28 27 27 28 27 25 26 26 27 26 25
36 36 36 35 35 35 35 35 34 34 33 32 32 31 32 32 32 31 30 30 30 30 29 29 29 28 29 29 29 29 28 28 27 27 27 27 25 26 27 26 25 25
35 35 34 34 34 34 35 34 34 33 33 33 32 31 31 31 31 30 30 30 30 30 30 29 29 28 28 29 29 29 29 28 26 26 27 25 25 25 25 24 25 24
36 35 34 34 34 34 34 33 33 33 32 31 31 30 30 30 30 30 30 30 30 30 30 30 29 29 28 29 30 30 29 28 27 26 26 25 24 24 23 25 24 24
35 34 34 33 34 34 34 33 32 31 31 31 31 30 30 30 30 30 30 30 31 30 30 29 29 29 29 30 31 30 29 28 27 27 26 25 24 24 24 23 23 23
35 34 34 34 34 34 33 32 32 31 31 32 32 30 30 30 30 31 31 31 31 29 29 30 30 31 31 31 31 30 30 29 27 28 27 25 25 24 23 23 23 22
34 34 34 34 34 34 33 32 32 32 32 32 31 30 30 30 30 31 31 31 31 30 31 31 32 32 31 31 31 31 30 29 28 27 26 25 24 24 25 23 22 23
34 34 34 34 35 34 33 32 32 32 32 32 31 31 30 30 31 31 32 31 32 32 33 33 32 32 31 31 31 30 30 30 28 27 26 24 23 23 23 23 23 22
35 34 35 35 35 36 34 32 31 31 31 31 31 32 31 31 31 32 32 32 32 33 33 33 32 32 31 31 31 30 29 28 28 27 27 25 24 23 23 23 22 22
35 35 34 35 35 35 34 32 31 31 31 32 32 32 32 32 32 32 32 32 33 33 33 33 32 32 32 31 31 30 29 28 28 27 26 26 25 24 23 22 22 22
35 34 34 34 34 34 34 33 32 32 32 32 31 32 33 33 33 33 32 32 32 32 32 32 32 32 32 31 30 29 29 29 28 27 27 26 25 25 23 21 20 21
35 35 35 35 34 34 34 33 32 31 31 31 32 33 33 32 32 33 33 32 32 31 32 32 31 32 32 33 33 30 29 29 28 27 27 26 24 23 21 20 21 20
35 35 35 34 34 33 32 32 32 32 31 31 31 32 31 31 32 32 32 32 32 31 31 31 31 31 33 35 35 34 31 29 27 25 24 25 24 22 21 21 20 20
35 35 34 33 32 31 31 31 31 30 29 29 29 30 30 31 31 32 32 32 32 31 31 31 31 32 35 35 36 36 33 28 27 25 23 24 22 21 21 20 20 20
34 34 33 31 32 32 31 31 30 30 29 28 29 30 30 30 31 31 31 31 31 30 30 30 30 33 35 36 36 36 36 31 24 24 23 22 22 21 20 20 19 19
33 32 31 31 32 31 31 30 29 29 30 30 29 29 29 30 30 30 30 30 30 30 30 30 30 33 35 36 36 36 37 33 24 23 21 21 21 21 21 20 19 19
32 32 32 32 31 30 29 29 29 29 29 29 29 30 29 29 29 28 28 28 28 29 29 29 29 33 35 36 36 37 37 35 23 21 19 19 20 20 20 20 19 20
32 31 31 31 30 29 29 29 28 28 28 29 29 29 29 29 29 28 28 28 28 27 27 27 28 33 34 35 36 37 38 32 22 20 19 19 19 20 20 19 19 19
33 32 31 30 29 28 28 28 28 28 29 29 28 29 29 28 28 28 28 27 26 25 25 27 26 30 34 34 35 37 36 28 21 20 19 18 19 19 19 19 19 19
33 31 30 29 29 28 28 29 29 29 29 28 28 28 27 27 28 27 26 26 25 24 24 24 24 27 33 34 35 36 35 27 23 21 20 19 19 19 19 19 19 22
32 31 31 29 29 29 29 29 29 29 29 27 27 27 27 26 25 25 23 22 23 24 25 24 23 25 31 33 34 35 35 28 23 21 21 20 19 19 19 18 18 20
31 30 30 29 29 29 28 29 29 27 27 26 26 26 26 25 23 23 23 22 21 20 20 22 22 21 23 31 33 34 36 30 22 21 21 21 20 19 18 16 16 16
MSLP
1024.26 1024.56 1024.83 1025.28 1025.57 1025.83 1026.18 1026.68 1027.07 1027.23 1027.31 1027.56 1027.52 1027.73 1027.81 1028.07 1028.33 1028.35 1028.57 1028.85 1029.09 1029.31 1029.68 1029.90 1030.11 1030.30 1030.54 1030.71 1030.92 1031.09 1031.31 1031.52 1031.78 1031.99 1032.09 1032.26 1032.52 1032.57 1032.64 1032.80 1032.85 1032.95
1024.33 1024.56 1024.90 1025.23 1025.66 1025.94 1026.16 1026.49 1026.80 1026.90 1027.14 1027.44 1027.56 1027.71 1027.97 1028.09 1028.30 1028.35 1028.59 1028.92 1029.23 1029.47 1029.80 1030.04 1030.23 1030.35 1030.56 1030.78 1030.97 1031.09 1031.49 1031.64 1031.85 1032.28 1032.26 1032.40 1032.78 1032.81 1032.78 1032.85 1032.99 1033.42
1024.30 1024.64 1024.88 1025.06 1025.23 1025.56 1025.94 1026.45 1026.80 1026.99 1027.21 1027.44 1027.66 1027.73 1027.90 1028.09 1028.26 1028.56 1028.71 1028.88 1029.21 1029.61 1029.92 1030.16 1030.35 1030.54 1030.68 1030.85 1031.06 1031.18 1031.44 1031.69 1031.94 1032.38 1032.42 1032.57 1032.94 1032.83 1032.99 1033.06 1033.18 1033.21
1024.23 1024.38 1024.69 1024.97 1025.14 1025.38 1025.88 1026.38 1026.81 1027.11 1027.45 1027.57 1027.56 1027.68 1027.80 1028.07 1028.30 1028.57 1028.83 1029.04 1029.28 1029.68 1030.02 1030.23 1030.38 1030.61 1030.78 1030.95 1031.09 1031.31 1031.59 1031.85 1032.16 1032.42 1032.54 1032.90 1033.02 1033.06 1033.14 1033.19 1033.26 1033.40
1023.91 1024.31 1024.56 1024.81 1025.06 1025.31 1025.76 1026.16 1026.54 1026.92 1027.14 1027.21 1027.54 1027.71 1027.85 1028.07 1028.35 1028.59 1028.85 1029.18 1029.40 1029.71 1030.06 1030.28 1030.52 1030.66 1030.85 1031.04 1031.14 1031.33 1031.69 1031.95 1032.35 1032.45 1032.49 1032.76 1033.11 1033.18 1033.35 1033.28 1033.19 1033.31
1023.76 1023.99 1024.35 1024.64 1024.85 1025.16 1025.59 1025.92 1026.28 1026.61 1026.90 1027.14 1027.28 1027.57 1027.76 1027.99 1028.21 1028.45 1028.78 1029.11 1029.47 1029.69 1030.02 1030.31 1030.52 1030.76 1030.92 1031.09 1031.23 1031.42 1031.73 1032.04 1032.44 1032.52 1032.66 1032.80 1033.14 1033.44 1033.54 1033.40 1033.33 1033.40
1023.61 1023.93 1024.23 1024.64 1024.95 1025.21 1025.45 1025.88 1026.28 1026.54 1026.68 1026.81 1027.28 1027.47 1027.71 1027.97 1028.21 1028.47 1028.80 1029.06 1029.38 1029.66 1029.90 1030.18 1030.42 1030.71 1030.99 1031.07 1031.18 1031.47 1031.90 1032.16 1032.52 1032.64 1032.73 1033.07 1033.30 1033.42 1033.57 1033.54 1033.45 1033.44
1023.49 1023.97 1024.30 1024.64 1024.90 1025.21 1025.44 1025.81 1026.16 1026.35 1026.57 1026.95 1027.11 1027.45 1027.69 1027.88 1028.18 1028.54 1028.81 1029.04 1029.28 1029.57 1029.85 1030.09 1030.33 1030.59 1030.88 1030.94 1031.07 1031.44 1031.90 1032.30 1032.47 1032.64 1032.78 1033.07 1033.31 1033.23 1033.45 1033.64 1033.59 1033.54
1023.59 1023.99 1024.30 1024.57 1024.80 1025.09 1025.31 1025.68 1025.99 1026.28 1026.54 1026.69 1027.02 1027.40 1027.76 1027.85 1028.11 1028.45 1028.71 1028.97 1029.19 1029.47 1029.76 1030.02 1030.23 1030.52 1030.78 1030.81 1031.07 1031.38 1031.78 1032.14 1032.35 1032.45 1032.54 1032.73 1032.94 1033.07 1033.35 1033.61 1033.61 1033.64
1023.52 1023.93 1024.21 1024.44 1024.61 1024.85 1025.11 1025.49 1025.83 1026.14 1026.45 1026.64 1026.92 1027.33 1027.59 1027.97 1028.26 1028.42 1028.66 1028.81 1029.06 1029.44 1029.68 1029.85 1030.16 1030.38 1030.61 1030.80 1031.02 1031.38 1031.69 1031.92 1032.21 1032.42 1032.44 1032.49 1032.59 1032.94 1033.28 1033.47 1033.47 1033.59
1023.34 1023.76 1024.02 1024.23 1024.45 1024.81 1025.06 1025.40 1025.68 1025.94 1026.28 1026.47 1026.90 1027.28 1027.56 1027.92 1028.30 1028.42 1028.49 1028.66 1028.83 1029.14 1029.42 1029.68 1029.85 1030.11 1030.38 1030.71 1031.04 1031.33 1031.59 1031.81 1032.07 1032.23 1032.26 1032.40 1032.56 1032.80 1033.09 1033.28 1033.38 1033.31
1023.05 1023.46 1023.67 1023.96 1024.28 1024.64 1024.92 1025.26 1025.54 1025.81 1026.14 1026.45 1026.69 1026.97 1027.44 1027.73 1027.88 1028.14 1028.16 1028.33 1028.59 1028.85 1029.06 1029.35 1029.69 1029.94 1030.16 1030.47 1030.83 1031.26 1031.59 1031.83 1031.97 1032.06 1032.18 1032.31 1032.45 1032.66 1032.95 1033.16 1033.16 1033.23
1022.67 1023.05 1023.46 1023.85 1024.18 1024.49 1024.99 1025.40 1025.68 1025.95 1026.19 1026.40 1026.66 1026.83 1027.11 1027.44 1027.69 1027.80 1028.02 1028.14 1028.42 1028.69 1028.88 1029.14 1029.47 1029.80 1030.09 1030.45 1030.80 1031.19 1031.57 1031.80 1031.88 1031.95 1032.07 1032.18 1032.26 1032.42 1032.73 1032.97 1033.04 1033.11
1022.32 1022.84 1023.29 1023.72 1024.16 1024.57 1024.95 1025.33 1025.71 1026.06 1026.28 1026.45 1026.66 1026.76 1026.88 1027.02 1027.19 1027.47 1027.83 1028.11 1028.28 1028.52 1028.76 1029.04 1029.33 1029.68 1029.99 1030.31 1030.68 1031.07 1031.47 1031.59 1031.61 1031.71 1031.88 1031.97 1032.14 1032.38 1032.59 1032.76 1032.88 1032.94
1022.11 1022.64 1023.08 1023.58 1024.04 1024.45 1024.81 1025.11 1025.40 1025.78 1026.18 1026.42 1026.56 1026.59 1026.68 1026.81 1027.06 1027.31 1027.68 1028.02 1028.30 1028.47 1028.73 1028.99 1029.23 1029.44 1029.71 1030.06 1030.49 1030.94 1031.18 1031.21 1031.31 1031.49 1031.61 1031.73 1031.97 1032.21 1032.45 1032.64 1032.76 1032.81
1021.84 1022.32 1022.76 1023.22 1023.67 1024.02 1024.35 1024.69 1025.06 1025.49 1025.92 1026.19 1026.35 1026.44 1026.57 1026.78 1027.02 1027.26 1027.45 1027.66 1027.99 1028.35 1028.61 1028.88 1029.06 1029.26 1029.49 1029.80 1030.16 1030.45 1030.71 1030.92 1031.14 1031.31 1031.42 1031.57 1031.78 1032.04 1032.31 1032.52 1032.56 1032.64
1021.64 1022.03 1022.49 1022.91 1023.23 1023.76 1024.26 1024.59 1024.90 1025.28 1025.71 1026.09 1026.42 1026.54 1026.61 1026.76 1026.88 1027.07 1027.26 1027.49 1027.76 1028.07 1028.40 1028.64 1028.83 1029.02 1029.28 1029.54 1029.81 1030.16 1030.49 1030.69 1030.85 1031.07 1031.33 1031.47 1031.61 1031.76 1031.85 1032.11 1032.38 1032.49
1021.26 1021.78 1022.29 1022.73 1023.23 1023.59 1024.02 1024.47 1024.88 1025.28 1025.61 1025.97 1026.33 1026.52 1026.56 1026.68 1026.78 1026.83 1027.09 1027.40 1027.71 1028.02 1028.23 1028.40 1028.59 1028.81 1029.06 1029.26 1029.49 1029.73 1030.09 1030.47 1030.69 1030.92 1031.19 1031.30 1031.44 1031.57 1031.69 1031.94 1032.09 1032.30
1021.05 1021.55 1022.08 1022.64 1023.09 1023.53 1024.02 1024.49 1024.85 1025.23 1025.61 1025.97 1026.16 1026.33 1026.68 1026.80 1026.68 1026.92 1027.11 1027.40 1027.66 1027.88 1028.09 1028.30 1028.52 1028.68 1028.83 1028.99 1029.19 1029.38 1029.64 1030.19 1030.59 1030.80 1030.95 1031.04 1031.19 1031.33 1031.47 1031.66 1031.92 1032.09
1021.05 1021.53 1022.08 1022.59 1023.14 1023.61 1024.02 1024.38 1024.80 1025.04 1025.42 1025.94 1026.45 1026.76 1026.71 1026.71 1026.83 1026.95 1027.16 1027.38 1027.52 1027.73 1027.97 1028.26 1028.44 1028.52 1028.59 1028.73 1028.90 1029.06 1029.28 1029.69 1030.31 1030.59 1030.78 1030.90 1030.94 1031.06 1031.19 1031.38 1031.56 1031.64
1020.99 1021.46 1021.96 1022.49 1022.99 1023.47 1023.91 1024.30 1024.64 1025.07 1025.54 1025.92 1026.26 1026.45 1026.56 1026.54 1026.61 1026.85 1027.04 1027.26 1027.54 1027.73 1027.95 1028.14 1028.16 1028.30 1028.38 1028.45 1028.59 1028.76 1028.92 1029.23 1029.99 1030.44 1030.69 1030.80 1030.85 1030.92 1030.95 1031.04 1031.18 1031.26
1020.91 1021.43 1021.93 1022.38 1022.90 1023.41 1023.85 1024.18 1024.56 1024.83 1025.23 1025.73 1026.18 1026.40 1026.56 1026.66 1026.76 1026.85 1026.92 1027.04 1027.28 1027.61 1027.85 1027.92 1027.94 1028.06 1028.16 1028.21 1028.33 1028.45 1028.64 1029.02 1029.69 1030.11 1030.35 1030.52 1030.61 1030.66 1030.73 1030.81 1030.90 1030.95
1020.79 1021.17 1021.67 1022.20 1022.73 1023.26 1023.72 1024.09 1024.45 1024.88 1025.30 1025.73 1026.16 1026.26 1026.33 1026.33 1026.30 1026.31 1026.49 1026.83 1027.14 1027.42 1027.56 1027.54 1027.71 1027.81 1027.85 1027.95 1028.09 1028.18 1028.40 1028.80 1029.44 1029.85 1030.06 1030.19 1030.14 1030.23 1030.38 1030.49 1030.56 1030.57
1020.53 1021.03 1021.58 1022.16 1022.72 1023.11 1023.52 1023.91 1024.30 1024.69 1025.09 1025.56 1025.81 1025.97 1026.06 1025.95 1026.06 1026.30 1026.54 1026.69 1026.88 1027.09 1027.18 1027.30 1027.35 1027.64 1027.71 1027.73 1027.88 1027.94 1028.04 1028.45 1029.06 1029.44 1029.61 1029.76 1029.81 1029.99 1030.11 1030.16 1030.09 1030.16
1020.61 1021.03 1021.46 1021.96 1022.40 1022.85 1023.32 1023.67 1023.99 1024.30 1024.71 1025.38 1025.64 1025.76 1025.81 1026.02 1026.30 1026.38 1026.54 1026.73 1026.81 1026.90 1027.18 1027.35 1027.33 1027.57 1027.64 1027.66 1027.69 1027.76 1027.83 1028.16 1028.71 1029.09 1029.26 1029.33 1029.56 1029.59 1029.68 1029.81 1029.83 1029.88
1020.53 1020.96 1021.38 1021.82 1022.23 1022.76 1023.22 1023.47 1023.84 1024.35 1024.69 1025.07 1025.42 1025.56 1025.71 1025.95 1026.19 1026.35 1026.40 1026.54 1026.85 1027.09 1027.19 1027.21 1027.33 1027.49 1027.71 1027.57 1027.57 1027.57 1027.56 1027.81 1028.38 1028.78 1028.68 1028.61 1029.04 1029.14 1029.23 1029.42 1029.54 1029.64
Wind_Speed
10 9 10 10 9 9 10 10 8 9 8 7 8 8 8 7 7 7 7 7 6 8 7 7 6 7 6 6 5 6 6 6 6 5 6 7 6 6 7 5 4 6
9 9 8 8 7 7 8 8 9 9 9 8 6 7 6 8 6 7 8 8 7 7 7 6 6 7 7 6 6 7 6 6 7 3 6 6 5 5 6 6 6 5
9 8 10 11 12 11 10 8 7 6 7 7 6 7 7 6 8 6 7 8 8 7 7 6 6 6 6 6 6 7 7 7 6 4 5 5 4 5 5 5 5 5
9 11 11 10 10 12 10 9 7 6 6 7 8 7 7 7 7 8 7 7 8 7 6 6 7 6 6 6 6 6 6 5 5 5 6 4 3 5 5 4 5 5
12 10 9 10 9 9 9 10 10 9 9 8 7 7 8 8 8 8 8 7 7 7 6 6 5 6 6 6 6 7 5 6 4 4 6 4 3 4 3 4 5 6
10 10 10 9 10 11 11 11 10 10 9 9 9 7 7 8 8 8 8 9 7 8 7 6 6 5 6 6 6 6 6 6 4 4 5 5 3 2 2 3 5 5
11 10 11 9 9 10 11 10 9 9 9 8 8 8 8 9 9 9 8 8 8 8 8 8 7 7 5 6 7 7 5 5 4 5 5 4 3 3 2 3 4 5
11 8 9 8 10 10 10 10 9 9 8 8 9 8 8 9 9 8 8 8 8 8 7 7 7 7 6 6 7 7 6 5 6 6 6 5 4 4 3 3 3 5
9 9 9 10 11 10 11 10 9 8 8 10 9 9 7 8 9 9 9 8 8 8 7 7 7 7 6 7 7 8 8 6 6 7 8 7 6 5 5 4 4 4
10 9 11 11 12 10 11 10 9 9 8 9 9 8 9 7 7 9 9 9 9 8 8 8 8 7 7 6 8 8 8 8 7 7 7 7 7 6 6 5 5 5
11 10 12 12 12 10 11 10 10 10 9 10 9 9 8 8 7 7 9 9 10 10 10 9 9 9 8 7 6 6 6 7 7 7 6 6 6 6 6 6 6 6
12 11 12 13 12 11 12 11 10 10 10 8 9 10 9 8 10 9 9 10 9 10 10 9 8 8 8 8 8 7 6 6 6 7 6 6 6 6 6 6 6 5
12 12 11 11 11 10 9 8 9 8 9 10 9 10 11 10 9 10 8 9 9 9 9 9 9 8 8 7 7 7 7 7 7 6 6 6 5 6 6 5 5 5
11 10 10 10 8 8 8 8 8 8 9 8 8 10 11 11 12 11 9 8 8 9 8 7 8 7 7 7 7 8 8 7 7 7 7 6 6 5 5 5 5 5
10 9 8 9 9 9 9 10 10 10 8 8 9 9 9 10 9 9 10 9 7 8 8 7 8 8 7 8 8 8 8 8 8 8 8 7 6 6 5 5 5 5
10 10 10 10 11 11 11 11 10 10 10 10 10 9 8 8 9 9 9 10 10 8 7 7 7 6 7 12 10 9 9 7 7 7 7 7 7 6 5 5 6 5
10 11 10 12 11 10 8 10 11 9 9 9 9 9 9 9 9 10 10 9 10 9 10 8 7 7 12 15 16 15 9 8 8 8 7 7 7 8 8 8 6 5
11 11 11 11 10 10 10 8 8 8 9 9 8 9 9 8 9 10 9 8 8 8 9 9 8 9 15 16 16 16 12 8 7 6 7 7 7 8 7 6 7 6
10 11 11 9 9 8 8 8 8 8 8 9 11 8 5 8 10 9 9 8 8 9 10 9 8 11 16 16 16 17 17 11 5 6 7 7 8 8 7 7 6 7
9 9 9 8 7 8 8 8 8 10 8 6 5 5 8 8 7 8 7 9 9 9 9 7 9 11 16 17 17 17 17 13 6 7 6 7 8 8 7 8 8 8
9 9 9 8 8 8 7 8 9 7 7 7 7 9 9 10 10 9 8 8 7 7 8 8 9 12 15 17 17 18 18 13 7 6 6 6 7 7 8 8 8 8
9 8 8 8 8 8 8 9 9 9 9 7 7 7 5 5 5 6 9 9 8 7 7 10 8 14 16 16 17 17 18 9 7 7 7 7 7 8 8 8 8 8
10 10 9 8 8 8 8 8 8 8 7 6 8 8 9 9 9 9 8 8 8 9 10 10 8 12 17 17 17 18 13 7 7 7 7 8 10 8 8 8 8 8
10 9 9 8 8 9 9 8 7 5 7 6 9 9 10 11 8 7 6 7 9 10 11 10 10 9 15 16 17 18 13 9 8 8 8 9 9 7 7 8 8 12
8 8 8 9 9 9 9 9 9 9 7 6 7 7 8 5 5 6 6 6 7 9 8 9 9 8 13 16 16 18 13 8 8 8 9 9 8 9 7 8 8 9
7 8 8 9 10 8 7 8 6 6 7 8 8 7 7 6 6 6 7 7 6 6 7 8 8 7 7 15 16 17 18 9 7 8 11 11 9 9 9 7 8 8
Wind_Direction
162 164 161 163 165 163 158 162 169 169 170 170 168 164 162 150 146 134 126 123 126 126 130 128 127 123 118 115 115 111 108 112 106 113 114 115 121 128 123 120 102 114
168 162 159 154 153 159 159 165 172 173 169 172 167 152 145 141 142 137 136 131 127 128 130 130 131 131 131 129 131 120 115 115 116 123 121 117 129 121 122 123 120 119
162 162 165 168 169 167 163 164 169 171 168 167 154 153 147 144 138 135 136 136 133 134 135 135 132 133 133 131 130 122 125 124 123 129 117 128 137 124 128 125 122 129
170 170 171 173 168 164 160 159 164 161 157 158 167 159 149 145 139 138 136 137 135 138 137 136 136 135 132 132 125 115 119 114 124 129 117 109 124 126 132 124 121 113
172 173 173 171 169 160 157 165 168 170 172 166 149 151 147 146 144 144 143 142 142 139 139 138 135 135 133 128 128 121 117 120 122 124 121 123 130 123 144 129 128 121
176 172 172 172 167 163 166 172 172 170 166 162 165 153 154 150 148 150 150 148 151 143 141 141 139 135 136 131 124 124 131 129 137 120 121 133 138 117 139 132 130 131
174 173 171 166 163 168 166 171 172 171 171 162 146 161 154 155 156 155 155 153 149 150 149 151 145 142 142 136 129 131 133 138 142 138 139 144 143 146 133 138 138 134
174 171 165 163 166 169 171 171 172 173 165 154 164 160 161 158 158 158 156 155 152 152 153 150 147 144 147 140 140 141 146 152 159 156 153 158 157 162 165 165 144 139
167 173 166 170 172 175 175 175 173 168 165 164 164 162 164 164 162 161 159 155 153 154 154 155 154 152 155 148 150 155 162 169 172 168 165 165 169 172 171 160 151 154
174 172 173 176 180 180 177 176 171 169 167 168 165 161 164 165 163 161 157 159 155 158 162 160 159 160 158 159 160 166 172 175 173 178 173 170 167 167 169 169 170 164
178 177 181 183 183 180 182 175 174 170 172 170 162 166 165 158 164 164 162 163 165 168 168 169 170 165 163 166 169 174 181 177 178 179 174 172 171 171 173 172 176 179
184 182 187 186 184 184 183 179 175 173 171 172 171 166 166 172 166 172 173 172 171 173 172 170 168 169 171 173 173 175 183 189 182 177 173 172 172 173 176 183 178 185
187 188 185 186 187 184 177 175 175 173 173 174 176 172 170 173 177 173 179 173 174 172 175 172 170 170 171 174 175 178 185 185 181 177 175 175 176 175 181 185 185 184
188 181 183 184 181 176 176 174 170 174 182 179 173 178 181 179 175 177 173 175 176 176 174 169 168 171 177 178 178 182 186 189 183 180 179 180 174 181 185 191 193 192
176 177 175 172 173 173 176 177 179 180 178 178 185 187 186 182 175 171 168 174 172 175 172 170 177 183 183 182 180 189 192 189 186 185 182 179 182 187 194 196 202 199
174 173 175 174 173 181 183 179 178 176 179 185 191 190 182 177 174 176 178 178 174 176 176 178 187 190 185 187 191 188 189 189 185 188 186 183 183 188 202 210 208 205
171 177 173 180 183 177 177 178 178 178 182 187 188 188 184 180 177 180 185 183 180 178 181 189 192 193 190 197 199 198 190 190 188 190 188 187 189 187 200 206 212 212
174 172 176 181 175 180 179 177 174 176 183 187 187 189 192 181 183 189 185 182 181 184 191 194 198 194 197 201 202 201 194 193 193 188 189 196 194 199 205 201 207 213
169 173 177 176 180 175 170 170 177 180 186 188 197 194 173 184 195 184 188 185 184 189 198 199 203 199 202 203 204 205 201 189 194 194 193 199 199 204 205 203 202 212
167 169 173 173 169 170 170 176 177 191 192 189 177 178 193 195 193 193 188 190 194 197 201 200 207 204 204 205 206 206 204 190 192 195 203 204 205 206 207 206 204 208
165 169 171 169 170 170 172 179 184 185 184 187 187 194 194 197 195 193 197 195 197 198 200 206 212 204 205 206 208 208 207 192 184 194 202 213 216 214 214 210 213 216
162 162 165 168 169 169 176 185 185 188 188 185 191 201 206 198 205 198 200 200 199 195 202 215 216 205 207 209 210 210 208 194 180 193 206 215 221 220 218 218 218 218
166 170 173 167 165 170 181 185 186 189 190 179 193 202 200 202 203 204 200 196 198 198 205 219 217 209 209 211 212 211 207 189 184 194 211 216 226 221 221 220 221 218
168 163 163 165 165 179 187 192 190 190 193 183 195 198 204 208 203 200 199 199 200 205 207 213 221 211 212 214 214 213 207 196 190 198 215 221 231 229 221 227 225 220
159 162 165 168 178 187 186 190 192 194 187 176 202 205 215 200 191 201 209 209 210 213 211 216 229 216 215 219 218 217 213 199 191 200 216 226 223 235 230 226 235 228
159 163 170 175 187 188 185 194 180 166 178 185 196 199 201 196 198 204 211 219 210 214 219 219 225 227 217 223 223 222 219 204 192 193 223 227 221 229 234 236 231 232